Year,Month,Day,Hour,Minute,Value (Times are PST for temperature in C)
2003,06,29,00,00,19.70
2003,06,29,00,01,19.70
2003,06,29,00,02,19.60
2003,06,29,00,03,19.50
2003,06,29,00,04,19.50
2003,06,29,00,05,19.50
2003,06,29,00,06,19.40
2003,06,29,00,07,19.40
2003,06,29,00,08,19.40
2003,06,29,00,09,19.30
2003,06,29,00,10,19.30
2003,06,29,00,11,19.30
2003,06,29,00,12,19.30
2003,06,29,00,13,19.40
2003,06,29,00,14,19.40
2003,06,29,00,15,19.40
2003,06,29,00,16,19.30
2003,06,29,00,17,19.30
2003,06,29,00,18,19.30
2003,06,29,00,19,19.20
2003,06,29,00,20,19.20
2003,06,29,00,21,19.10
2003,06,29,00,22,19.10
2003,06,29,00,23,19.10
2003,06,29,00,24,19.10
2003,06,29,00,25,19.10
2003,06,29,00,26,19.00
2003,06,29,00,27,18.90
2003,06,29,00,28,18.90
2003,06,29,00,29,18.90
2003,06,29,00,30,19.00
2003,06,29,00,31,19.10
2003,06,29,00,32,19.10
2003,06,29,00,33,19.10
2003,06,29,00,34,19.10
2003,06,29,00,35,19.10
2003,06,29,00,36,19.10
2003,06,29,00,37,19.00
2003,06,29,00,38,18.90
2003,06,29,00,39,18.90
2003,06,29,00,40,18.90
2003,06,29,00,41,18.90
2003,06,29,00,42,18.90
2003,06,29,00,43,18.90
2003,06,29,00,44,18.90
2003,06,29,00,45,18.90
2003,06,29,00,46,18.90
2003,06,29,00,47,18.90
2003,06,29,00,48,18.90
2003,06,29,00,49,18.90
2003,06,29,00,50,18.90
2003,06,29,00,51,18.90
2003,06,29,00,52,18.90
2003,06,29,00,53,18.90
2003,06,29,00,54,18.90
2003,06,29,00,55,18.90
2003,06,29,00,56,18.90
2003,06,29,00,57,18.90
2003,06,29,00,58,18.90
2003,06,29,00,59,19.00
2003,06,29,01,00,19.10
2003,06,29,01,01,19.10
2003,06,29,01,02,19.00
2003,06,29,01,03,18.90
2003,06,29,01,04,18.90
2003,06,29,01,05,19.00
2003,06,29,01,06,19.10
2003,06,29,01,07,19.10
2003,06,29,01,08,19.10
2003,06,29,01,09,19.10
2003,06,29,01,10,19.10
2003,06,29,01,11,18.90
2003,06,29,01,12,18.90
2003,06,29,01,13,18.90
2003,06,29,01,14,18.90
2003,06,29,01,15,18.90
2003,06,29,01,16,18.90
2003,06,29,01,17,18.90
2003,06,29,01,18,18.80
2003,06,29,01,19,18.80
2003,06,29,01,20,18.70
2003,06,29,01,21,18.70
2003,06,29,01,22,18.60
2003,06,29,01,23,18.50
2003,06,29,01,24,18.50
2003,06,29,01,25,18.50
2003,06,29,01,26,18.50
2003,06,29,01,27,18.50
2003,06,29,01,28,18.50
2003,06,29,01,29,18.40
2003,06,29,01,30,18.40
2003,06,29,01,31,18.40
2003,06,29,01,32,18.30
2003,06,29,01,33,18.30
2003,06,29,01,34,18.30
2003,06,29,01,35,18.20
2003,06,29,01,36,18.20
2003,06,29,01,37,18.20
2003,06,29,01,38,18.20
2003,06,29,01,39,18.20
2003,06,29,01,40,18.20
2003,06,29,01,41,18.20
2003,06,29,01,42,18.10
2003,06,29,01,43,18.10
2003,06,29,01,44,18.10
2003,06,29,01,45,18.10
2003,06,29,01,46,18.10
2003,06,29,01,47,18.10
2003,06,29,01,48,18.10
2003,06,29,01,49,18.10
2003,06,29,01,50,18.10
2003,06,29,01,51,18.10
2003,06,29,01,52,18.10
2003,06,29,01,53,18.10
2003,06,29,01,54,18.10
2003,06,29,01,55,18.20
2003,06,29,01,56,18.20
2003,06,29,01,57,18.20
2003,06,29,01,58,18.30
2003,06,29,01,59,18.30
2003,06,29,02,00,18.40
2003,06,29,02,01,18.40
2003,06,29,02,02,18.40
2003,06,29,02,03,18.40
2003,06,29,02,04,18.40
2003,06,29,02,05,18.30
2003,06,29,02,06,18.30
2003,06,29,02,07,18.20
2003,06,29,02,08,18.20
2003,06,29,02,09,18.10
2003,06,29,02,10,18.00
2003,06,29,02,11,17.90
2003,06,29,02,12,17.90
2003,06,29,02,13,18.00
2003,06,29,02,14,18.00
2003,06,29,02,15,17.90
2003,06,29,02,16,17.80
2003,06,29,02,17,17.80
2003,06,29,02,18,17.80
2003,06,29,02,19,17.80
2003,06,29,02,20,17.90
2003,06,29,02,21,17.90
2003,06,29,02,22,17.90
2003,06,29,02,23,17.90
2003,06,29,02,24,17.80
2003,06,29,02,25,17.70
2003,06,29,02,26,17.70
2003,06,29,02,27,17.70
2003,06,29,02,28,17.80
2003,06,29,02,29,17.90
2003,06,29,02,30,17.90
2003,06,29,02,31,17.90
2003,06,29,02,32,18.00
2003,06,29,02,33,18.10
2003,06,29,02,34,18.10
2003,06,29,02,35,18.10
2003,06,29,02,36,18.10
2003,06,29,02,37,18.10
2003,06,29,02,38,18.10
2003,06,29,02,39,18.10
2003,06,29,02,40,18.10
2003,06,29,02,41,18.10
2003,06,29,02,42,18.00
2003,06,29,02,43,18.00
2003,06,29,02,44,18.00
2003,06,29,02,45,17.90
2003,06,29,02,46,17.90
2003,06,29,02,47,17.90
2003,06,29,02,48,17.90
2003,06,29,02,49,17.80
2003,06,29,02,50,17.80
2003,06,29,02,51,17.80
2003,06,29,02,52,17.80
2003,06,29,02,53,17.80
2003,06,29,02,54,17.90
2003,06,29,02,55,17.90
2003,06,29,02,56,17.90
2003,06,29,02,57,17.90
2003,06,29,02,58,17.90
2003,06,29,02,59,17.90
2003,06,29,03,00,17.90
2003,06,29,03,01,17.90
2003,06,29,03,02,17.90
2003,06,29,03,03,17.90
2003,06,29,03,04,17.90
2003,06,29,03,05,17.80
2003,06,29,03,06,17.80
2003,06,29,03,07,17.60
2003,06,29,03,08,17.50
2003,06,29,03,09,17.50
2003,06,29,03,10,17.50
2003,06,29,03,11,17.50
2003,06,29,03,12,17.50
2003,06,29,03,13,17.60
2003,06,29,03,14,17.60
2003,06,29,03,15,17.60
2003,06,29,03,16,17.60
2003,06,29,03,17,17.60
2003,06,29,03,18,17.60
2003,06,29,03,19,17.60
2003,06,29,03,20,17.50
2003,06,29,03,21,17.50
2003,06,29,03,22,17.50
2003,06,29,03,23,17.40
2003,06,29,03,24,17.40
2003,06,29,03,25,17.40
2003,06,29,03,26,17.30
2003,06,29,03,27,17.30
2003,06,29,03,28,17.30
2003,06,29,03,29,17.30
2003,06,29,03,30,17.20
2003,06,29,03,31,17.10
2003,06,29,03,32,17.10
2003,06,29,03,33,17.00
2003,06,29,03,34,16.80
2003,06,29,03,35,16.70
2003,06,29,03,36,16.60
2003,06,29,03,37,16.40
2003,06,29,03,38,16.30
2003,06,29,03,39,16.10
2003,06,29,03,40,16.00
2003,06,29,03,41,15.90
2003,06,29,03,42,15.90
2003,06,29,03,43,15.80
2003,06,29,03,44,15.80
2003,06,29,03,45,15.80
2003,06,29,03,46,15.80
2003,06,29,03,47,15.80
2003,06,29,03,48,15.80
2003,06,29,03,49,15.80
2003,06,29,03,50,15.80
2003,06,29,03,51,15.80
2003,06,29,03,52,15.70
2003,06,29,03,53,15.70
2003,06,29,03,54,15.70
2003,06,29,03,55,15.60
2003,06,29,03,56,15.60
2003,06,29,03,57,15.60
2003,06,29,03,58,15.60
2003,06,29,03,59,15.50
2003,06,29,04,00,15.60
2003,06,29,04,01,15.60
2003,06,29,04,02,15.70
2003,06,29,04,03,15.70
2003,06,29,04,04,15.70
2003,06,29,04,05,15.70
2003,06,29,04,06,15.80
2003,06,29,04,07,15.70
2003,06,29,04,08,15.80
2003,06,29,04,09,15.80
2003,06,29,04,10,15.80
2003,06,29,04,11,15.80
2003,06,29,04,12,15.80
2003,06,29,04,13,15.70
2003,06,29,04,14,15.70
2003,06,29,04,15,15.70
2003,06,29,04,16,15.70
2003,06,29,04,17,15.60
2003,06,29,04,18,15.60
2003,06,29,04,19,15.50
2003,06,29,04,20,15.50
2003,06,29,04,21,15.50
2003,06,29,04,22,15.50
2003,06,29,04,23,15.60
2003,06,29,04,24,15.60
2003,06,29,04,25,15.70
2003,06,29,04,26,15.70
2003,06,29,04,27,15.60
2003,06,29,04,28,15.60
2003,06,29,04,29,15.60
2003,06,29,04,30,15.50
2003,06,29,04,31,15.60
2003,06,29,04,32,15.50
2003,06,29,04,33,15.50
2003,06,29,04,34,15.50
2003,06,29,04,35,15.50
2003,06,29,04,36,15.50
2003,06,29,04,37,15.50
2003,06,29,04,38,15.60
2003,06,29,04,39,15.60
2003,06,29,04,40,15.70
2003,06,29,04,41,15.70
2003,06,29,04,42,15.80
2003,06,29,04,43,15.80
2003,06,29,04,44,15.80
2003,06,29,04,45,15.80
2003,06,29,04,46,15.80
2003,06,29,04,47,15.80
2003,06,29,04,48,15.90
2003,06,29,04,49,15.90
2003,06,29,04,50,15.90
2003,06,29,04,51,16.00
2003,06,29,04,52,16.10
2003,06,29,04,53,16.20
2003,06,29,04,54,16.20
2003,06,29,04,55,16.40
2003,06,29,04,56,16.50
2003,06,29,04,57,16.70
2003,06,29,04,58,16.80
2003,06,29,04,59,17.00
2003,06,29,05,00,17.10
2003,06,29,05,01,17.30
2003,06,29,05,02,17.40
2003,06,29,05,03,17.50
2003,06,29,05,04,17.70
2003,06,29,05,05,17.80
2003,06,29,05,06,17.90
2003,06,29,05,07,18.00
2003,06,29,05,08,18.10
2003,06,29,05,09,18.20
2003,06,29,05,10,18.20
2003,06,29,05,11,18.30
2003,06,29,05,12,18.30
2003,06,29,05,13,18.30
2003,06,29,05,14,18.30
2003,06,29,05,15,18.40
2003,06,29,05,16,18.40
2003,06,29,05,17,18.40
2003,06,29,05,18,18.40
2003,06,29,05,19,18.40
2003,06,29,05,20,18.40
2003,06,29,05,21,18.40
2003,06,29,05,22,18.40
2003,06,29,05,23,18.40
2003,06,29,05,24,18.40
2003,06,29,05,25,18.40
2003,06,29,05,26,18.40
2003,06,29,05,27,18.40
2003,06,29,05,28,18.40
2003,06,29,05,29,18.40
2003,06,29,05,30,18.40
2003,06,29,05,31,18.50
2003,06,29,05,32,18.50
2003,06,29,05,33,18.50
2003,06,29,05,34,18.50
2003,06,29,05,35,18.50
2003,06,29,05,36,18.50
2003,06,29,05,37,18.50
2003,06,29,05,38,18.60
2003,06,29,05,39,18.60
2003,06,29,05,40,18.70
2003,06,29,05,41,18.70
2003,06,29,05,42,18.70
2003,06,29,05,43,18.80
2003,06,29,05,44,18.80
2003,06,29,05,45,18.80
2003,06,29,05,46,18.80
2003,06,29,05,47,18.80
2003,06,29,05,48,18.80
2003,06,29,05,49,18.80
2003,06,29,05,50,18.80
2003,06,29,05,51,18.80
2003,06,29,05,52,18.80
2003,06,29,05,53,18.90
2003,06,29,05,54,18.90
2003,06,29,05,55,19.10
2003,06,29,05,56,19.10
2003,06,29,05,57,19.20
2003,06,29,05,58,19.30
2003,06,29,05,59,19.40
2003,06,29,06,00,19.40
2003,06,29,06,01,19.50
2003,06,29,06,02,19.60
2003,06,29,06,03,19.60
2003,06,29,06,04,19.50
2003,06,29,06,05,19.40
2003,06,29,06,06,19.20
2003,06,29,06,07,19.00
2003,06,29,06,08,18.70
2003,06,29,06,09,18.50
2003,06,29,06,10,18.50
2003,06,29,06,11,18.40
2003,06,29,06,12,18.50
2003,06,29,06,13,18.50
2003,06,29,06,14,18.50
2003,06,29,06,15,18.50
2003,06,29,06,16,18.40
2003,06,29,06,17,18.50
2003,06,29,06,18,18.50
2003,06,29,06,19,18.50
2003,06,29,06,20,18.50
2003,06,29,06,21,18.50
2003,06,29,06,22,18.30
2003,06,29,06,23,18.30
2003,06,29,06,24,18.30
2003,06,29,06,25,18.20
2003,06,29,06,26,18.20
2003,06,29,06,27,18.30
2003,06,29,06,28,18.40
2003,06,29,06,29,18.50
2003,06,29,06,30,18.70
2003,06,29,06,31,18.80
2003,06,29,06,32,18.90
2003,06,29,06,33,18.90
2003,06,29,06,34,18.90
2003,06,29,06,35,19.00
2003,06,29,06,36,19.10
2003,06,29,06,37,19.10
2003,06,29,06,38,19.10
2003,06,29,06,39,19.10
2003,06,29,06,40,19.10
2003,06,29,06,41,19.10
2003,06,29,06,42,19.10
2003,06,29,06,43,19.10
2003,06,29,06,44,19.10
2003,06,29,06,45,19.20
2003,06,29,06,46,19.30
2003,06,29,06,47,19.30
2003,06,29,06,48,19.40
2003,06,29,06,49,19.50
2003,06,29,06,50,19.60
2003,06,29,06,51,19.60
2003,06,29,06,52,19.70
2003,06,29,06,53,19.70
2003,06,29,06,54,19.80
2003,06,29,06,55,19.80
2003,06,29,06,56,19.80
2003,06,29,06,57,19.90
2003,06,29,06,58,19.90
2003,06,29,06,59,20.00
2003,06,29,07,00,20.10
2003,06,29,07,01,20.10
2003,06,29,07,02,20.20
2003,06,29,07,03,20.20
2003,06,29,07,04,20.40
2003,06,29,07,05,20.50
2003,06,29,07,06,20.60
2003,06,29,07,07,20.60
2003,06,29,07,08,20.70
2003,06,29,07,09,20.70
2003,06,29,07,10,20.70
2003,06,29,07,11,20.70
2003,06,29,07,12,20.70
2003,06,29,07,13,20.70
2003,06,29,07,14,20.80
2003,06,29,07,15,20.80
2003,06,29,07,16,20.80
2003,06,29,07,17,20.80
2003,06,29,07,18,20.80
2003,06,29,07,19,20.80
2003,06,29,07,20,20.70
2003,06,29,07,21,20.70
2003,06,29,07,22,20.70
2003,06,29,07,23,20.70
2003,06,29,07,24,20.60
2003,06,29,07,25,20.60
2003,06,29,07,26,20.60
2003,06,29,07,27,20.60
2003,06,29,07,28,20.60
2003,06,29,07,29,20.60
2003,06,29,07,30,20.50
2003,06,29,07,31,20.60
2003,06,29,07,32,20.60
2003,06,29,07,33,20.60
2003,06,29,07,34,20.60
2003,06,29,07,35,20.60
2003,06,29,07,36,20.60
2003,06,29,07,37,20.60
2003,06,29,07,38,20.60
2003,06,29,07,39,20.60
2003,06,29,07,40,20.50
2003,06,29,07,41,20.50
2003,06,29,07,42,20.50
2003,06,29,07,43,20.40
2003,06,29,07,44,20.40
2003,06,29,07,45,20.40
2003,06,29,07,46,20.40
2003,06,29,07,47,20.40
2003,06,29,07,48,20.40
2003,06,29,07,49,20.40
2003,06,29,07,50,20.30
2003,06,29,07,51,20.30
2003,06,29,07,52,20.30
2003,06,29,07,53,20.30
2003,06,29,07,54,20.40
2003,06,29,07,55,20.50
2003,06,29,07,56,20.60
2003,06,29,07,57,20.60
2003,06,29,07,58,20.70
2003,06,29,07,59,20.70
2003,06,29,08,00,20.70
2003,06,29,08,01,20.70
2003,06,29,08,02,20.70
2003,06,29,08,03,20.80
2003,06,29,08,04,20.70
2003,06,29,08,05,20.70
2003,06,29,08,06,20.80
2003,06,29,08,07,20.70
2003,06,29,08,08,20.70
2003,06,29,08,09,20.80
2003,06,29,08,10,20.80
2003,06,29,08,11,20.90
2003,06,29,08,12,20.90
2003,06,29,08,13,20.90
2003,06,29,08,14,20.90
2003,06,29,08,15,21.00
2003,06,29,08,16,21.00
2003,06,29,08,17,21.00
2003,06,29,08,18,21.10
2003,06,29,08,19,21.10
2003,06,29,08,20,21.20
2003,06,29,08,21,21.30
2003,06,29,08,22,21.30
2003,06,29,08,23,21.30
2003,06,29,08,24,21.30
2003,06,29,08,25,21.30
2003,06,29,08,26,21.30
2003,06,29,08,27,21.30
2003,06,29,08,28,21.30
2003,06,29,08,29,21.30
2003,06,29,08,30,21.30
2003,06,29,08,31,21.30
2003,06,29,08,32,21.30
2003,06,29,08,33,21.20
2003,06,29,08,34,21.10
2003,06,29,08,35,21.10
2003,06,29,08,36,21.00
2003,06,29,08,37,21.00
2003,06,29,08,38,20.90
2003,06,29,08,39,20.90
2003,06,29,08,40,20.80
2003,06,29,08,41,20.80
2003,06,29,08,42,20.80
2003,06,29,08,43,20.70
2003,06,29,08,44,20.70
2003,06,29,08,45,20.70
2003,06,29,08,46,20.60
2003,06,29,08,47,20.60
2003,06,29,08,48,20.60
2003,06,29,08,49,20.50
2003,06,29,08,50,20.50
2003,06,29,08,51,20.50
2003,06,29,08,52,20.50
2003,06,29,08,53,20.50
2003,06,29,08,54,20.50
2003,06,29,08,55,20.50
2003,06,29,08,56,20.50
2003,06,29,08,57,20.60
2003,06,29,08,58,20.70
2003,06,29,08,59,20.70
2003,06,29,09,00,20.70
2003,06,29,09,01,20.70
2003,06,29,09,02,20.70
2003,06,29,09,03,20.70
2003,06,29,09,04,20.70
2003,06,29,09,05,20.70
2003,06,29,09,06,20.60
2003,06,29,09,07,20.60
2003,06,29,09,08,20.60
2003,06,29,09,09,20.70
2003,06,29,09,10,20.70
2003,06,29,09,11,20.70
2003,06,29,09,12,20.80
2003,06,29,09,13,20.80
2003,06,29,09,14,20.80
2003,06,29,09,15,20.90
2003,06,29,09,16,21.00
2003,06,29,09,17,21.10
2003,06,29,09,18,21.20
2003,06,29,09,19,21.30
2003,06,29,09,20,21.50
2003,06,29,09,21,21.60
2003,06,29,09,22,21.70
2003,06,29,09,23,21.80
2003,06,29,09,24,21.80
2003,06,29,09,25,21.70
2003,06,29,09,26,21.70
2003,06,29,09,27,21.70
2003,06,29,09,28,21.60
2003,06,29,09,29,21.60
2003,06,29,09,30,21.60
2003,06,29,09,31,21.60
2003,06,29,09,32,21.60
2003,06,29,09,33,21.50
2003,06,29,09,34,21.40
2003,06,29,09,35,21.30
2003,06,29,09,36,21.30
2003,06,29,09,37,21.30
2003,06,29,09,38,21.30
2003,06,29,09,39,21.20
2003,06,29,09,40,21.20
2003,06,29,09,41,21.10
2003,06,29,09,42,21.10
2003,06,29,09,43,21.00
2003,06,29,09,44,21.00
2003,06,29,09,45,20.90
2003,06,29,09,46,20.90
2003,06,29,09,47,20.80
2003,06,29,09,48,20.80
2003,06,29,09,49,20.80
2003,06,29,09,50,20.70
2003,06,29,09,51,20.70
2003,06,29,09,52,20.70
2003,06,29,09,53,20.70
2003,06,29,09,54,20.60
2003,06,29,09,55,20.60
2003,06,29,09,56,20.70
2003,06,29,09,57,20.70
2003,06,29,09,58,20.60
2003,06,29,09,59,20.60
2003,06,29,10,00,20.60
2003,06,29,10,01,20.60
2003,06,29,10,02,20.50
2003,06,29,10,03,20.50
2003,06,29,10,04,20.50
2003,06,29,10,05,20.50
2003,06,29,10,06,20.50
2003,06,29,10,07,20.50
2003,06,29,10,08,20.50
2003,06,29,10,09,20.50
2003,06,29,10,10,20.50
2003,06,29,10,11,20.60
2003,06,29,10,12,20.50
2003,06,29,10,13,20.50
2003,06,29,10,14,20.60
2003,06,29,10,15,20.60
2003,06,29,10,16,20.60
2003,06,29,10,17,20.60
2003,06,29,10,18,20.60
2003,06,29,10,19,20.60
2003,06,29,10,20,20.70
2003,06,29,10,21,20.60
2003,06,29,10,22,20.70
2003,06,29,10,23,20.70
2003,06,29,10,24,20.70
2003,06,29,10,25,20.60
2003,06,29,10,26,20.60
2003,06,29,10,27,20.50
2003,06,29,10,28,20.50
2003,06,29,10,29,20.50
2003,06,29,10,30,20.40
2003,06,29,10,31,20.50
2003,06,29,10,32,20.50
2003,06,29,10,33,20.50
2003,06,29,10,34,20.60
2003,06,29,10,35,20.70
2003,06,29,10,36,20.80
2003,06,29,10,37,20.90
2003,06,29,10,38,21.00
2003,06,29,10,39,21.00
2003,06,29,10,40,21.10
2003,06,29,10,41,21.10
2003,06,29,10,42,21.00
2003,06,29,10,43,21.00
2003,06,29,10,44,21.00
2003,06,29,10,45,21.00
2003,06,29,10,46,21.00
2003,06,29,10,47,21.00
2003,06,29,10,48,20.90
2003,06,29,10,49,20.90
2003,06,29,10,50,20.90
2003,06,29,10,51,21.00
2003,06,29,10,52,21.00
2003,06,29,10,53,21.00
2003,06,29,10,54,21.00
2003,06,29,10,55,21.00
2003,06,29,10,56,21.00
2003,06,29,10,57,21.00
2003,06,29,10,58,21.00
2003,06,29,10,59,21.00
2003,06,29,11,00,20.90
2003,06,29,11,01,20.80
2003,06,29,11,02,20.80
2003,06,29,11,03,20.70
2003,06,29,11,04,20.60
2003,06,29,11,05,20.50
2003,06,29,11,06,20.50
2003,06,29,11,07,20.40
2003,06,29,11,08,20.40
2003,06,29,11,09,20.40
2003,06,29,11,10,20.30
2003,06,29,11,11,20.20
2003,06,29,11,12,20.20
2003,06,29,11,13,20.20
2003,06,29,11,14,20.20
2003,06,29,11,15,20.10
2003,06,29,11,16,20.00
2003,06,29,11,17,19.90
2003,06,29,11,18,19.90
2003,06,29,11,19,19.90
2003,06,29,11,20,19.90
2003,06,29,11,21,20.00
2003,06,29,11,22,20.10
2003,06,29,11,23,20.20
2003,06,29,11,24,20.30
2003,06,29,11,25,20.20
2003,06,29,11,26,20.20
2003,06,29,11,27,20.10
2003,06,29,11,28,20.10
2003,06,29,11,29,20.10
2003,06,29,11,30,20.10
2003,06,29,11,31,20.10
2003,06,29,11,32,20.10
2003,06,29,11,33,20.10
2003,06,29,11,34,20.10
2003,06,29,11,35,20.00
2003,06,29,11,36,19.90
2003,06,29,11,37,19.90
2003,06,29,11,38,19.90
2003,06,29,11,39,19.80
2003,06,29,11,40,19.70
2003,06,29,11,41,19.60
2003,06,29,11,42,19.50
2003,06,29,11,43,19.40
2003,06,29,11,44,19.50
2003,06,29,11,45,19.60
2003,06,29,11,46,19.60
2003,06,29,11,47,19.70
2003,06,29,11,48,19.80
2003,06,29,11,49,19.90
2003,06,29,11,50,20.10
2003,06,29,11,51,20.20
2003,06,29,11,52,20.30
2003,06,29,11,53,20.40
2003,06,29,11,54,20.40
2003,06,29,11,55,20.40
2003,06,29,11,56,20.40
2003,06,29,11,57,20.50
2003,06,29,11,58,20.50
2003,06,29,11,59,20.50
2003,06,29,12,00,20.50
2003,06,29,12,01,20.60
2003,06,29,12,02,20.70
2003,06,29,12,03,20.80
2003,06,29,12,04,20.80
2003,06,29,12,05,20.70
2003,06,29,12,06,20.70
2003,06,29,12,07,20.70
2003,06,29,12,08,20.70
2003,06,29,12,09,20.80
2003,06,29,12,10,20.80
2003,06,29,12,11,20.80
2003,06,29,12,12,20.90
2003,06,29,12,13,20.80
2003,06,29,12,14,20.70
2003,06,29,12,15,20.70
2003,06,29,12,16,20.60
2003,06,29,12,17,20.60
2003,06,29,12,18,20.50
2003,06,29,12,19,20.50
2003,06,29,12,20,20.60
2003,06,29,12,21,20.60
2003,06,29,12,22,20.70
2003,06,29,12,23,20.70
2003,06,29,12,24,20.60
2003,06,29,12,25,20.50
2003,06,29,12,26,20.30
2003,06,29,12,27,20.20
2003,06,29,12,28,20.00
2003,06,29,12,29,19.90
2003,06,29,12,30,19.90
2003,06,29,12,31,19.90
2003,06,29,12,32,19.90
2003,06,29,12,33,19.90
2003,06,29,12,34,20.10
2003,06,29,12,35,20.20
2003,06,29,12,36,20.20
2003,06,29,12,37,20.20
2003,06,29,12,38,20.30
2003,06,29,12,39,20.30
2003,06,29,12,40,20.30
2003,06,29,12,41,20.30
2003,06,29,12,42,20.30
2003,06,29,12,43,20.30
2003,06,29,12,44,20.30
2003,06,29,12,45,20.20
2003,06,29,12,46,20.30
2003,06,29,12,47,20.40
2003,06,29,12,48,20.50
2003,06,29,12,49,20.50
2003,06,29,12,50,20.50
2003,06,29,12,51,20.50
2003,06,29,12,52,20.50
2003,06,29,12,53,20.50
2003,06,29,12,54,20.50
2003,06,29,12,55,20.50
2003,06,29,12,56,20.50
2003,06,29,12,57,20.60
2003,06,29,12,58,20.70
2003,06,29,12,59,20.80
2003,06,29,13,00,20.80
2003,06,29,13,01,20.80
2003,06,29,13,02,20.80
2003,06,29,13,03,20.80
2003,06,29,13,04,20.80
2003,06,29,13,05,20.90
2003,06,29,13,06,21.00
2003,06,29,13,07,21.10
2003,06,29,13,08,21.20
2003,06,29,13,09,21.20
2003,06,29,13,10,21.30
2003,06,29,13,11,21.30
2003,06,29,13,12,21.30
2003,06,29,13,13,21.30
2003,06,29,13,14,21.30
2003,06,29,13,15,21.50
2003,06,29,13,16,21.60
2003,06,29,13,17,21.60
2003,06,29,13,18,21.60
2003,06,29,13,19,21.60
2003,06,29,13,20,21.60
2003,06,29,13,21,21.60
2003,06,29,13,22,21.60
2003,06,29,13,23,21.70
2003,06,29,13,24,21.70
2003,06,29,13,25,21.70
2003,06,29,13,26,21.80
2003,06,29,13,27,21.80
2003,06,29,13,28,21.80
2003,06,29,13,29,21.80
2003,06,29,13,30,21.80
2003,06,29,13,31,21.80
2003,06,29,13,32,21.90
2003,06,29,13,33,22.00
2003,06,29,13,34,22.10
2003,06,29,13,35,22.20
2003,06,29,13,36,22.20
2003,06,29,13,37,22.10
2003,06,29,13,38,22.10
2003,06,29,13,39,22.20
2003,06,29,13,40,22.20
2003,06,29,13,41,22.20
2003,06,29,13,42,22.20
2003,06,29,13,43,22.20
2003,06,29,13,44,22.10
2003,06,29,13,45,22.00
2003,06,29,13,46,22.00
2003,06,29,13,47,21.90
2003,06,29,13,48,21.80
2003,06,29,13,49,21.80
2003,06,29,13,50,21.70
2003,06,29,13,51,21.80
2003,06,29,13,52,21.90
2003,06,29,13,53,21.90
2003,06,29,13,54,22.00
2003,06,29,13,55,22.00
2003,06,29,13,56,21.90
2003,06,29,13,57,21.80
2003,06,29,13,58,21.90
2003,06,29,13,59,21.80
2003,06,29,14,00,21.80
2003,06,29,14,01,21.90
2003,06,29,14,02,21.90
2003,06,29,14,03,21.90
2003,06,29,14,04,21.90
2003,06,29,14,05,22.00
2003,06,29,14,06,21.90
2003,06,29,14,07,21.90
2003,06,29,14,08,21.90
2003,06,29,14,09,21.90
2003,06,29,14,10,22.00
2003,06,29,14,11,22.00
2003,06,29,14,12,21.90
2003,06,29,14,13,21.80
2003,06,29,14,14,21.70
2003,06,29,14,15,21.60
2003,06,29,14,16,21.60
2003,06,29,14,17,21.60
2003,06,29,14,18,21.60
2003,06,29,14,19,21.70
2003,06,29,14,20,21.80
2003,06,29,14,21,21.90
2003,06,29,14,22,22.00
2003,06,29,14,23,22.00
2003,06,29,14,24,22.00
2003,06,29,14,25,22.00
2003,06,29,14,26,22.10
2003,06,29,14,27,22.20
2003,06,29,14,28,22.30
2003,06,29,14,29,22.40
2003,06,29,14,30,22.50
2003,06,29,14,31,22.60
2003,06,29,14,32,22.70
2003,06,29,14,33,22.80
2003,06,29,14,34,22.90
2003,06,29,14,35,22.90
2003,06,29,14,36,22.90
2003,06,29,14,37,22.80
2003,06,29,14,38,22.80
2003,06,29,14,39,22.70
2003,06,29,14,40,22.60
2003,06,29,14,41,22.60
2003,06,29,14,42,22.60
2003,06,29,14,43,22.50
2003,06,29,14,44,22.50
2003,06,29,14,45,22.30
2003,06,29,14,46,22.20
2003,06,29,14,47,22.20
2003,06,29,14,48,22.00
2003,06,29,14,49,21.80
2003,06,29,14,50,21.60
2003,06,29,14,51,21.40
2003,06,29,14,52,21.30
2003,06,29,14,53,21.10
2003,06,29,14,54,20.90
2003,06,29,14,55,20.80
2003,06,29,14,56,20.80
2003,06,29,14,57,20.70
2003,06,29,14,58,20.50
2003,06,29,14,59,20.50
2003,06,29,15,00,20.30
2003,06,29,15,01,20.20
2003,06,29,15,02,20.10
2003,06,29,15,03,20.00
2003,06,29,15,04,19.90
2003,06,29,15,05,19.90
2003,06,29,15,06,19.90
2003,06,29,15,07,19.90
2003,06,29,15,08,19.90
2003,06,29,15,09,19.90
2003,06,29,15,10,20.00
2003,06,29,15,11,20.00
2003,06,29,15,12,19.90
2003,06,29,15,13,19.90
2003,06,29,15,14,19.80
2003,06,29,15,15,19.80
2003,06,29,15,16,19.80
2003,06,29,15,17,19.80
2003,06,29,15,18,19.80
2003,06,29,15,19,19.90
2003,06,29,15,20,19.90
2003,06,29,15,21,19.90
2003,06,29,15,22,19.90
2003,06,29,15,23,19.90
2003,06,29,15,24,20.00
2003,06,29,15,25,20.00
2003,06,29,15,26,20.10
2003,06,29,15,27,20.20
2003,06,29,15,28,20.20
2003,06,29,15,29,20.20
2003,06,29,15,30,20.20
2003,06,29,15,31,20.20
2003,06,29,15,32,20.20
2003,06,29,15,33,20.00
2003,06,29,15,34,19.90
2003,06,29,15,35,19.90
2003,06,29,15,36,19.80
2003,06,29,15,37,19.60
2003,06,29,15,38,19.60
2003,06,29,15,39,19.60
2003,06,29,15,40,19.60
2003,06,29,15,41,19.70
2003,06,29,15,42,19.70
2003,06,29,15,43,19.70
2003,06,29,15,44,19.70
2003,06,29,15,45,19.70
2003,06,29,15,46,19.80
2003,06,29,15,47,19.90
2003,06,29,15,48,19.90
2003,06,29,15,49,20.00
2003,06,29,15,50,20.10
2003,06,29,15,51,20.30
2003,06,29,15,52,20.50
2003,06,29,15,53,20.60
2003,06,29,15,54,20.80
2003,06,29,15,55,21.00
2003,06,29,15,56,21.10
2003,06,29,15,57,21.20
2003,06,29,15,58,21.30
2003,06,29,15,59,21.30
2003,06,29,16,00,21.20
2003,06,29,16,01,21.20
2003,06,29,16,02,21.10
2003,06,29,16,03,21.10
2003,06,29,16,04,21.00
2003,06,29,16,05,21.00
2003,06,29,16,06,20.90
2003,06,29,16,07,20.80
2003,06,29,16,08,20.70
2003,06,29,16,09,20.60
2003,06,29,16,10,20.60
2003,06,29,16,11,20.50
2003,06,29,16,12,20.50
2003,06,29,16,13,20.40
2003,06,29,16,14,20.30
2003,06,29,16,15,20.20
2003,06,29,16,16,20.20
2003,06,29,16,17,20.10
2003,06,29,16,18,20.10
2003,06,29,16,19,20.10
2003,06,29,16,20,20.10
2003,06,29,16,21,20.10
2003,06,29,16,22,20.20
2003,06,29,16,23,20.20
2003,06,29,16,24,20.20
2003,06,29,16,25,20.20
2003,06,29,16,26,20.20
2003,06,29,16,27,20.20
2003,06,29,16,28,20.30
2003,06,29,16,29,20.50
2003,06,29,16,30,20.60
2003,06,29,16,31,20.70
2003,06,29,16,32,20.80
2003,06,29,16,33,20.80
2003,06,29,16,34,20.80
2003,06,29,16,35,20.70
2003,06,29,16,36,20.70
2003,06,29,16,37,20.80
2003,06,29,16,38,20.80
2003,06,29,16,39,21.00
2003,06,29,16,40,21.00
2003,06,29,16,41,21.10
2003,06,29,16,42,21.00
2003,06,29,16,43,20.80
2003,06,29,16,44,20.60
2003,06,29,16,45,20.50
2003,06,29,16,46,20.40
2003,06,29,16,47,20.40
2003,06,29,16,48,20.40
2003,06,29,16,49,20.40
2003,06,29,16,50,20.40
2003,06,29,16,51,20.40
2003,06,29,16,52,20.30
2003,06,29,16,53,20.30
2003,06,29,16,54,20.40
2003,06,29,16,55,20.50
2003,06,29,16,56,20.60
2003,06,29,16,57,20.70
2003,06,29,16,58,20.80
2003,06,29,16,59,20.90
2003,06,29,17,00,21.00
2003,06,29,17,01,21.10
2003,06,29,17,02,21.20
2003,06,29,17,03,21.20
2003,06,29,17,04,21.20
2003,06,29,17,05,21.20
2003,06,29,17,06,21.30
2003,06,29,17,07,21.40
2003,06,29,17,08,21.60
2003,06,29,17,09,21.60
2003,06,29,17,10,21.70
2003,06,29,17,11,21.70
2003,06,29,17,12,21.70
2003,06,29,17,13,21.80
2003,06,29,17,14,21.80
2003,06,29,17,15,21.90
2003,06,29,17,16,21.90
2003,06,29,17,17,22.00
2003,06,29,17,18,22.00
2003,06,29,17,19,22.00